This is the latest recevied weather packets stored in our database for station/object W4MSI. If no packets are shown the sender has not sent any weather packets the latest 10 day(s).
| Time | Temp. | Humidity | Pressure | Rain* | Wind** | Luminosity | Snow |
|---|---|---|---|---|---|---|---|
| 1778083135 | 13.33° C | 79% | 1014 hPa | 0 mm | - | 199 W/m² | - |
| 1778082831 | 13.33° C | 76% | 1013.7 hPa | 0 mm | - | 574 W/m² | - |
| 1778081708 | 13.33° C | 79% | 1013.6 hPa | 0 mm | - | 546 W/m² | - |
| 1778081406 | 13.33° C | 79% | 1013.3 hPa | 0 mm | - | 599 W/m² | - |
| 1778081102 | 12.78° C | 80% | 1013.3 hPa | 0 mm | - | 715 W/m² | - |
| 1778080800 | 12.22° C | 83% | 1013 hPa | 0 mm | - | 730 W/m² | - |
| 1778080498 | 11.67° C | 84% | 1013 hPa | 0 mm | - | 554 W/m² | - |
| 1778080195 | 11.67° C | 86% | 1012.7 hPa | 0 mm | - | 654 W/m² | - |
| 1778079891 | 11.67° C | 87% | 1012.6 hPa | 0 mm | - | 440 W/m² | - |
| 1778079588 | 11.11° C | 88% | 1012.8 hPa | 0 mm | - | 493 W/m² | - |
| 1778079284 | 11.11° C | 90% | 1012.7 hPa | 0 mm | - | 441 W/m² | - |
| 1778078982 | 10.56° C | 95% | 1012.6 hPa | 0 mm | - | 328 W/m² | - |
| 1778078678 | 10.56° C | 97% | 1012.6 hPa | 0 mm | - | 317 W/m² | - |
| 1778078377 | 10.56° C | 98% | 1012.5 hPa | 0 mm | - | 268 W/m² | - |
| 1778078073 | 10° C | 98% | 1012.5 hPa | 0 mm | - | 257 W/m² | - |
| 1778077772 | 10° C | 98% | 1012.5 hPa | 0 mm | - | 206 W/m² | - |
| 1778077469 | 10° C | 98% | 1012.4 hPa | 0 mm | - | 63 W/m² | - |
| 1778077167 | 10° C | 98% | 1012.7 hPa | 0 mm | - | 69 W/m² | - |
| 1778076865 | 10° C | 98% | 1012.7 hPa | 0 mm | - | 67 W/m² | - |
| 1778076563 | 10° C | 98% | 1012.7 hPa | 0 mm | - | 56 W/m² | - |
| 1778076260 | 10° C | 98% | 1012.5 hPa | 0 mm | - | 43 W/m² | - |
| 1778075957 | 10° C | 98% | 1012.4 hPa | 0 mm | - | 55 W/m² | - |
| 1778075654 | 10° C | 98% | 1012.4 hPa | 0 mm | - | 49 W/m² | - |
| 1778075350 | 10° C | 98% | 1012.5 hPa | 0 mm | - | 44 W/m² | - |
| 1778075046 | 10° C | 98% | 1012.2 hPa | 0 mm | - | 40 W/m² | - |
* Rain latest hour (hover to see other rain measurements)
** Current wind speed in m/s (hover to see current wind gust speed)